EW6640 Weather Reports


time (UTC)temp
C
wind
direction
speed
KPH
gust
KPH
rain 1hr
cm
rain 24hr
cm
rain mn
cm
humidity
%
barometer
mb
20260508230026 15 200 0.0 0.0 0.00 0.00 0.00 73 1010.0
20260508224522 15 200 0.0 0.0 0.00 0.00 0.00 73 1010.1
20260508223021 16 200 0.0 0.0 0.00 0.00 0.00 69 1010.0
20260508221522 16 200 0.0 0.0 0.00 0.00 0.00 65 1010.1
20260508220022 17 200 0.0 1.6 0.00 0.00 0.00 62 1010.1
20260508214519 17 259 0.0 1.6 0.00 0.00 0.00 60 1009.9
20260508213017 17 268 0.0 3.2 0.00 0.00 0.00 60 1010.2
20260508211519 17 247 0.0 4.8 0.00 0.00 0.00 60 1010.3
20260508210017 17 182 0.0 8.0 0.00 0.00 0.00 58 1010.4
20260508204513 17 186 0.0 8.0 0.00 0.00 0.00 57 1010.6
20260508203014 17 163 0.0 8.0 0.00 0.00 0.00 56 1010.5
20260508201613 17 159 3.2 8.0 0.00 0.00 0.00 55 1010.7
20260508200026 18 292 1.6 12.9 0.00 0.00 0.00 55 1010.9
20260508194620 18 163 6.4 17.7 0.00 0.00 0.00 55 1010.9
20260508193037 18 178 1.6 11.3 0.00 0.00 0.00 55 1010.9
20260508191629 18 152 3.2 12.9 0.00 0.00 0.00 55 1011.2
20260508190058 18 191 1.6 11.3 0.00 0.00 0.00 54 1011.5
20260508184509 18 225 3.2 14.5 0.00 0.00 0.00 56 1011.5
20260508183106 18 87 3.2 14.5 0.00 0.00 0.00 54 1011.7
20260508181550 18 41 6.4 17.7 0.00 0.00 0.00 54 1011.9
20260508180050 17 232 1.6 11.3 0.00 0.00 0.00 55 1012.1
20260508174559 18 160 4.8 17.7 0.00 0.00 0.00 54 1012.4
20260508173053 18 285 1.6 12.9 0.00 0.00 0.00 57 1012.6
20260508171551 18 246 4.8 14.5 0.00 0.00 0.00 58 1012.7
20260508170046 17 282 3.2 12.9 0.00 0.00 0.00 57 1013.0
20260508164547 17 224 3.2 14.5 0.00 0.00 0.00 58 1013.5
20260508163106 17 58 3.2 11.3 0.00 0.00 0.00 58 1013.7
20260508161538 16 355 1.6 8.0 0.00 0.00 0.00 61 1013.9
20260508160035 16 247 3.2 17.7 0.00 0.00 0.00 62 1013.8
20260508154530 16 267 1.6 12.9 0.00 0.00 0.00 62 1014.1
20260508153031 15 146 3.2 11.3 0.00 0.00 0.00 61 1014.1
20260508151532 15 300 1.6 9.7 0.00 0.00 0.00 63 1014.3
20260508150027 14 129 1.6 9.7 0.00 0.00 0.00 63 1014.5
20260508144518 13 148 1.6 11.3 0.00 0.00 0.00 66 1014.7
20260508143017 13 287 1.6 8.0 0.00 0.00 0.00 67 1014.9
20260508141511 12 283 0.0 6.4 0.00 0.00 0.00 69 1015.0
20260508140016 11 306 1.6 4.8 0.00 0.00 0.00 69 1015.0
20260508134610 11 178 1.6 4.8 0.00 0.00 0.00 71 1015.3
20260508133022 10 273 0.0 3.2 0.00 0.00 0.00 73 1015.5
20260508131619 10 217 0.0 1.6 0.00 0.00 0.00 77 1015.3
20260508130055 10 217 0.0 0.0 0.00 0.00 0.00 84 1015.1
20260508124505 9 217 0.0 0.0 0.00 0.00 0.00 84 1015.3
20260508123006 9 217 0.0 0.0 0.00 0.00 0.00 79 1014.9
20260508121503 8 217 0.0 0.0 0.00 0.00 0.00 79 1015.1
20260508120004 8 217 0.0 0.0 0.00 0.00 0.00 78 1014.9
20260508114501 8 217 0.0 0.0 0.00 0.00 0.00 81 1014.9
20260508113103 8 217 0.0 0.0 0.00 0.00 0.00 79 1014.8
20260508111600 8 217 0.0 1.6 0.00 0.00 0.00 74 1014.5
20260508110138 8 220 1.6 4.8 0.00 0.00 0.00 73 1014.4
20260508110002 8 223 0.0 4.8 0.00 0.00 0.00 74 1014.4
20260508104604 8 212 0.0 4.8 0.00 0.00 0.00 73 1014.3
20260508103059 8 211 0.0 3.2 0.00 0.00 0.00 73 1014.4
20260508101600 8 303 0.0 4.8 0.00 0.00 0.00 73 1014.2
20260508100058 8 178 0.0 4.8 0.00 0.00 0.00 73 1014.1
20260508094557 8 223 0.0 3.2 0.00 0.00 0.00 73 1014.4
20260508093101 8 172 0.0 3.2 0.00 0.00 0.00 74 1014.4
20260508091551 8 163 0.0 4.8 0.00 0.00 0.00 74 1014.4
20260508090106 8 227 0.0 3.2 0.00 0.00 0.00 73 1014.6
20260508084547 8 234 0.0 8.0 0.00 0.00 0.00 72 1014.5
20260508083047 8 263 0.0 4.8 0.00 0.00 0.00 72 1014.6
20260508081548 8 221 0.0 3.2 0.00 0.00 0.00 71 1014.6
20260508080045 8 185 0.0 0.0 0.00 0.00 0.00 71 1014.7
20260508074544 8 183 0.0 0.0 0.00 0.00 0.00 71 1014.6
20260508073043 8 183 0.0 3.2 0.00 0.00 0.00 71 1014.6
20260508071541 8 232 0.0 3.2 0.00 0.00 0.00 73 1014.8
20260508070038 8 230 0.0 1.6 0.00 0.00 0.00 74 1015.0
20260508064535 8 230 0.0 0.0 0.00 0.00 0.00 72 1015.1
20260508063033 9 230 0.0 0.0 0.00 0.00 0.00 71 1015.2
20260508061531 10 203 0.0 4.8 0.00 0.00 0.00 67 1015.1
20260508060028 10 182 0.0 3.2 0.00 0.00 0.00 66 1015.0
20260508054527 10 196 0.0 4.8 0.00 0.00 0.00 65 1015.2
20260508053027 10 150 0.0 6.4 0.00 0.00 0.00 65 1015.2
20260508051526 10 194 0.0 4.8 0.00 0.00 0.00 66 1015.1
20260508050024 10 221 0.0 3.2 0.00 0.00 0.00 68 1015.1
20260508044525 10 230 0.0 3.2 0.00 0.00 0.00 70 1015.2
20260508043022 10 231 0.0 0.0 0.00 0.00 0.00 72 1015.1
20260508041530 10 231 0.0 0.0 0.00 0.00 0.00 71 1015.2
20260508040019 10 231 0.0 0.0 0.00 0.00 0.00 69 1015.1
20260508034520 10 231 0.0 3.2 0.00 0.00 0.00 68 1015.2
20260508033024 10 184 0.0 1.6 0.00 0.00 0.00 69 1015.1
20260508031516 10 184 0.0 4.8 0.00 0.00 0.00 70 1015.2
20260508030016 10 331 0.0 1.6 0.00 0.00 0.00 72 1015.1
20260508024519 10 331 0.0 0.0 0.00 0.00 0.00 73 1015.1
20260508023027 10 331 0.0 0.0 0.00 0.00 0.00 69 1015.0
20260508021514 10 331 0.0 0.0 0.00 0.00 0.00 67 1015.0
20260508020013 11 331 0.0 0.0 0.00 0.00 0.00 66 1014.9
20260508014512 11 331 0.0 0.0 0.00 0.00 0.00 64 1014.9
20260508013011 12 331 0.0 3.2 0.00 0.00 0.00 59 1014.8
20260508011511 12 259 0.0 3.2 0.00 0.00 0.00 58 1015.0
20260508010013 12 218 0.0 3.2 0.00 0.00 0.00 58 1014.9
20260508004517 12 201 0.0 0.0 0.00 0.00 0.00 57 1015.0
20260508003009 12 201 0.0 0.0 0.00 0.00 0.00 54 1014.9
20260508001511 12 200 0.0 4.8 0.00 0.00 0.00 53 1014.8
20260508000010 13 232 0.0 3.2 0.00 0.00 0.00 51 1014.8
20260507234623 13 254 0.0 3.2 0.00 0.00 0.00 50 1014.6
20260507233052 13 169 0.0 8.0 0.00 0.00 0.00 49 1014.5